Regional Weather Roundup
Issued by NWS

Home | Current Version | Previous Version | Text Only | Print | Product List | Glossary Off
Versions: 1 2 3 4 5 6 7 8 9 10 11 12 13 14 15 16 17 18 19 20 21 22 23 24 25 26 27 28 29 30 31 32 33 34 35 36 37 38 39 40 41 42 43 44 45 46 47 48 49 50

000
ASUS45 KBOU 211507
RWRCO

WEATHER ROUNDUP FOR COLORADO
NATIONAL WEATHER SERVICE DENVER/BOULDER CO
900 AM MDT MON JUL 21 2014

NOTE: "FAIR" INDICATES FEW OR NO CLOUDS BELOW 12000 FEET WITH NO
SIGNIFICANT WEATHER AND/OR OBSTRUCTIONS TO VISIBILITY.

COZ001>005-013-030-031-211600-
...NORTHWEST COLORADO...

CITY           SKY/WX    TMP DP  RH WIND       PRES   REMARKS
CRAIG          SUNNY     63  50  62 NE7       30.26R
HAYDEN         SUNNY     66  45  45 E12       30.28S
MEEKER         SUNNY     66  45  46 CALM      30.28S
MOUNT WERNER   SUNNY     61  28  29 SW10G17   30.59S
STEAMBOAT SPGS SUNNY     62  47  58 CALM      30.31S
WALDEN         SUNNY     66  43  42 S10       30.38R
$$

COZ006>008-011-211600-
...WEST CENTRAL VALLEYS...

CITY           SKY/WX    TMP DP  RH WIND       PRES   REMARKS
GRAND JUNCTION MOSUNNY   76  47  35 SE10      30.17R
MONTROSE       PTSUNNY   76  46  34 SE5       30.27R
EAGLE          MOSUNNY   59  46  63 CALM      30.37S
RIFLE          SUNNY     69  47  45 E6        30.25R
DELTA          PTSUNNY   73  46  39 E7        30.23S
NUCLA          PTSUNNY   72  34  25 E5        30.32R
$$

COZ017>023-064>068-211600-
...SOUTHWEST COLORADO...

CITY           SKY/WX    TMP DP  RH WIND       PRES   REMARKS
DURANGO        MOSUNNY   71  42  35 CALM      30.34R
CORTEZ         SUNNY     72  44  36 NE5       30.30R
PAGOSA SPRINGS MOSUNNY   65  47  50 CALM      30.43R
TELLURIDE      MOSUNNY   64  37  36 CALM      30.52R
WOLF CREEK PAS NOT AVBL
$$

COZ009-010-012-014-032>034-037-058>063-211600-
...CENTRAL COLORADO...

CITY           SKY/WX    TMP DP  RH WIND       PRES   REMARKS
ASPEN          MOSUNNY   63  46  54 CALM      30.39F
BUENA VISTA    PTSUNNY   62  44  52 CALM      30.44R
COPPER MTN     PTSUNNY   55  32  41 SW10G18   30.72S
BERTHOUD PASS  FAIR      48  34  57 NW15G35   30.75R
COTTONWOOD PAS PTSUNNY   63  39  42 CALM      30.57R
GUNNISON       MOSUNNY   55  43  62 CALM      30.48S
KREMMLING      SUNNY     55  45  67 CALM      30.41S
LEADVILLE      PTSUNNY   52  47  83 CALM      30.56R
MONARCH PASS   MOSUNNY   50  36  57 W15       30.83R
SALIDA         PTSUNNY   62  48  59 CALM      30.48S
SUNLIGHT       MOSUNNY   59  43  55 CALM      30.63S
WILKERSON PASS NOT AVBL
$$

COZ069>075-211600-
...SAN LUIS VALLEY/SANGRE DE CRISTO MOUNTAINS...

CITY           SKY/WX    TMP DP  RH WIND       PRES   REMARKS
ALAMOSA        PTSUNNY   63  53  70 CALM      30.41R
LA VETA PASS   CLOUDY    57  43  58 SW9G17    30.57R
SAGUACHE       MOSUNNY   63  45  51 CALM      30.45R
$$

COZ035-036-038>040-211600-
...NORTHERN COLORADO FRONT RANGE...

CITY           SKY/WX    TMP DP  RH WIND       PRES   REMARKS
DENVER INTL AP PTSUNNY   79  47  32 SW13      30.15R
DMNS CITY PARK   N/A     79  51  37 S3        30.15S
AURORA         NOT AVBL
FRONT RANGE AP PTSUNNY   81  48  32 SW9       30.16
ERIE MUNI ARPT PTSUNNY   85  48  27 NW6       30.13R
BOULDER MUN AP   N/A     81  52  36 N5        30.14R
CENTENNIAL     PTSUNNY   79  44  28 SW6       30.21R
BROOMFIELD     PTSUNNY   81  48  32 S5        30.18R
FORT COLLINS   PTSUNNY   81  54  39 SE6       30.12S
LONGMONT       PTSUNNY   81  52  35 CALM      30.14R
$$

COZ041-046-047-076>085-087-088-211600-
...PIKES PEAK/PALMER DIVIDE AND SOUTHERN FOOTHILLS...

CITY           SKY/WX    TMP DP  RH WIND       PRES   REMARKS
COLO. SPRINGS  CLOUDY    78  52  40 NW5       30.24R
A. F. ACADEMY  CLOUDY    77  42  28 VRB7      30.27R
ELLICOTT       CLOUDY    78  49  35 N6        30.22R
FALCON         CLOUDY    78  43  28 NW9       30.30R
FORT CARSON    CLOUDY    74  51  43 NW3       30.21R
LIMON          NOT AVBL
MONUMENT HILL  PTSUNNY   73  45  35 W9        30.30S
TRINIDAD       PTSUNNY   82  47  29 W8        30.21R
$$

COZ042>045-048>051-090-091-211600-
...NORTHEAST COLORADO...

CITY           SKY/WX    TMP DP  RH WIND       PRES   REMARKS
GREELEY ARPT   MOSUNNY   77  57  50 S7        30.11S
AKRON          MOSUNNY   79  49  34 W12       30.10R
BURLINGTON     PTSUNNY   82  59  45 W6        30.07R
WRAY             N/A     87  50  27 W8        30.01S
STERLING       MOSUNNY   77  63  61 SW3       30.04S
HOLYOKE        PTSUNNY   86  54  32 W9        30.01R
FORT MORGAN    MOSUNNY   76  53  44 W8        30.10R
$$

COZ086-089-092>099-211600-
...SOUTHEAST COLORADO...

CITY           SKY/WX    TMP DP  RH WIND       PRES   REMARKS
PUEBLO         CLOUDY    76  53  44 W9        30.12R
LA JUNTA       MOSUNNY   80  58  46 W9        30.07R
LAMAR          MOSUNNY   82  56  40 W10       30.02R
SPRINGFIELD      N/A     84  62  47 SW10      30.09R
$$



USA.gov is the U.S. government's official web portal to all federal, state and local government web resources and services.